Unicom:                    122.8

AWOS:                  118.275

Elevation           1458’ MSL

TPA:                   2500’ MSL

06/24:         5003’ L   75’ W

PAPI:       06/Left     24/Left

(Operate lights on unicom freq.)

Traffic Pattern: Left

Beacon: Sunset to Sunrise

Windsock: yes, lighted

Segmented Circle: No

 

Cleveland Center: 126.72/291.65

FSS: Altoona

[Source: ADDS]
METAR
KFKL 151456Z AUTO 32007G15KT 240V360 10SM SCT022 BKN028 BKN032 19/13 A2994 RMK AO2 SLP133 T01890133 50006 =
KFKL 151123Z 1512/1612 30007KT 4SM BR BKN002 FM151400 33009G16KT P6SM SCT040 FM152300 32004KT P6SM BKN200
TAF
KFKL 151123Z 1512/1612 30007KT 4SM BR BKN002 FM151400 33009G16KT P6SM SCT040 FM152300 32004KT P6SM BKN200 =
[Source: ADDS]
METAR
KDUJ 151453Z AUTO 31008KT 10SM FEW021 OVC039 18/13 A2991 RMK AO2 SLP122 T01780128 53006 =
KDUJ 151123Z 1512/1612 28006KT P6SM SCT060 TEMPO 1512/1514 4SM BR BKN002 FM151400 33010G20KT P6SM SCT040 FM152300 32005KT P6SM SCT150
TAF
KDUJ 151123Z 1512/1612 28006KT P6SM SCT060 TEMPO 1512/1514 4SM BR BKN002 FM151400 33010G20KT P6SM SCT040 FM152300 32005KT P6SM SCT150 =

Hangars

Hangars – A/B   $132/$148a month.   Gravel floor/Concrete

Hangar C - Commercial hangar, concrete floor, heated. Call for pricing 814-226-9993.

Tie Downs Available.